Location: Solstice Park, West Seattle
(47.5363°N, 122.3905°W)
Time: 08:32:32
(UTC-07:00)

ISS - Pass Details

Date: 20 May 2021
Orbit: 417 x 422 km, 51.6° (Epoch: 18 June)

Event Time Altitude Azimuth Distance (km) Brightness Sun altitude
Rises 01:37:37 0° 293° (WNW) 2,372 0.3 -22.0°
Reaches altitude 10° 01:39:44 10° 291° (WNW) 1,506 -0.8 -22.0°
Enters shadow 01:40:30 16° 289° (WNW) 1,196 -1.4 -22.0°
